Location: Boston
(42.3580°N, 71.0600°W)
Time: 03:52:50
(UTC-04:00)

Vanguard 1 - All Passes

Search period start: 17 October 2017 00:00
Search period end: 27 October 2017 00:00
Orbit: 650 x 3834 km, 34.3° (Epoch: 15 October)

Date Brightness Start Highest point End Pass type
(mag) Time Alt. Az. Time Alt. Az. Time Alt. Az.
17 Oct - 00:09:34 10° SSW 00:21:13 36° SE 00:38:54 10° E visible
17 Oct - 02:27:55 10° WSW 02:44:05 63° SSE 03:07:05 10° E visible
17 Oct - 04:49:50 10° W 05:10:10 67° S 05:32:37 10° ESE visible
17 Oct - 07:14:32 10° W 07:35:51 48° SSW 07:54:18 10° SE daylight
17 Oct - 09:44:32 10° W 09:58:04 20° SW 10:09:22 10° SSW daylight
17 Oct - 22:17:43 10° SE 22:22:12 12° ESE 22:27:29 10° ESE night (unlit)
18 Oct - 00:29:33 10° SSW 00:41:46 43° SE 01:00:57 10° E visible
18 Oct - 02:48:47 10° WSW 03:05:23 66° S 03:28:40 10° E visible
18 Oct - 05:11:07 10° W 05:31:38 64° SSW 05:53:42 10° ESE visible
18 Oct - 07:36:19 10° W 07:56:43 41° SW 08:14:23 10° SSE daylight
18 Oct - 10:09:46 10° W 10:18:15 14° WSW 10:25:51 10° SSW daylight
18 Oct - 22:34:53 10° SSE 22:42:15 19° SE 22:52:12 10° E visible
19 Oct - 00:49:49 10° SW 01:02:30 50° SSE 01:22:50 10° E visible
19 Oct - 03:09:46 10° WSW 03:26:47 68° S 03:50:12 10° E visible
19 Oct - 05:32:27 10° W 05:53:00 60° SSW 06:14:37 10° SE visible
19 Oct - 07:58:21 10° W 08:17:26 34° SW 08:34:04 10° SSE daylight
19 Oct - 22:53:45 10° S 23:02:24 25° SE 23:15:16 10° E visible
20 Oct - 01:10:20 10° SW 01:23:26 56° SSE 01:44:36 10° E visible
20 Oct - 03:30:49 10° W 03:48:14 68° S 04:11:38 10° ESE visible
20 Oct - 05:53:51 10° W 06:14:15 54° SSW 06:35:18 10° SE visible
20 Oct - 08:20:48 10° W 08:37:59 27° SW 08:53:12 10° S daylight
20 Oct - 23:13:17 10° SSW 23:22:43 32° SE 23:37:40 10° E visible
21 Oct - 01:31:00 10° WSW 01:44:29 61° SSE 02:06:19 10° E visible
21 Oct - 03:51:56 10° W 04:09:41 66° S 04:32:58 10° ESE visible
21 Oct - 06:15:21 10° W 06:35:22 48° SSW 06:55:42 10° SE visible
21 Oct - 08:44:00 10° W 08:58:27 21° SW 09:11:30 10° S daylight
21 Oct - 23:33:15 10° SSW 23:43:11 40° SE 23:59:44 10° E visible
22 Oct - 01:51:48 10° WSW 02:05:42 65° S 02:28:00 10° E visible
22 Oct - 04:13:06 10° W 04:31:07 63° SSW 04:54:08 10° ESE visible
22 Oct - 06:37:01 10° W 06:56:21 41° SW 07:15:47 10° SSE visible
22 Oct - 09:08:52 10° W 09:18:48 15° SW 09:28:07 10° SSW daylight
22 Oct - 21:39:24 10° SSE 21:44:27 15° SE 21:50:56 10° E night (unlit)
22 Oct - 23:53:30 10° SW 00:03:50 47° SSE 00:21:38 10° E visible
23 Oct - 02:12:42 10° WSW 02:27:00 66° S 02:49:36 10° E visible
23 Oct - 04:34:19 10° W 04:52:29 59° SSW 05:15:07 10° SE visible
23 Oct - 06:58:56 10° W 07:17:12 34° SW 07:35:26 10° SSE daylight
23 Oct - 21:57:57 10° S 22:04:35 21° SE 22:14:13 10° E night (unlit)
24 Oct - 00:13:58 10° SW 00:24:40 53° SSE 00:43:26 10° E visible
24 Oct - 02:33:40 10° W 02:48:21 66° S 03:11:07 10° ESE visible
24 Oct - 04:55:37 10° W 05:13:46 53° SSW 05:35:50 10° SE visible
24 Oct - 07:21:17 10° W 07:37:57 28° SW 07:54:31 10° S daylight
24 Oct - 22:17:24 10° SSW 22:24:52 28° SE 22:36:40 10° E night (unlit)
25 Oct - 00:34:36 10° WSW 00:45:39 59° SSE 01:05:11 10° E visible
25 Oct - 02:54:42 10° W 03:09:43 65° S 03:32:32 10° ESE visible
25 Oct - 05:17:00 10° W 05:34:57 47° SSW 05:56:16 10° SE visible
25 Oct - 07:44:23 10° W 07:58:35 21° SW 08:12:43 10° S daylight
25 Oct - 22:37:20 10° SSW 22:45:18 35° SE 22:58:43 10° E visible
26 Oct - 00:55:21 10° WSW 01:06:45 62° S 01:26:52 10° E visible
26 Oct - 03:15:47 10° W 03:31:05 61° SSW 03:53:46 10° ESE visible
26 Oct - 05:38:35 10° W 05:56:02 40° SSW 06:16:19 10° SSE visible
26 Oct - 08:09:08 10° WSW 08:19:10 15° SW 08:29:10 10° SSW daylight
26 Oct - 20:44:56 10° SE 20:47:08 11° SE 20:49:37 10° ESE night (unlit)
26 Oct - 22:57:33 10° SW 23:05:54 43° SSE 23:20:35 10° E visible
